Time,TemperatureF,DewpointF,PressureIn,WindDirection,WindDirectionDegrees,WindSpeedMPH,WindSpeedGustMPH,Humidity,HourlyPrecipIn,Conditions,Clouds,dailyrainin,SolarRadiationWatts/m^2,SoftwareType,DateUTC
2013-03-06 00:00:00,26.0,22.0,-100.00,NNE,22,13.0,-999.0,84,-99.99,,,-99.99,0.000000,,2013-03-06 05:00:00,
2013-03-06 00:42:00,26.0,22.0,-100.00,NNE,22,13.0,-999.0,84,-99.99,,,-99.99,0.000000,,2013-03-06 05:42:00,
2013-03-06 00:52:00,26.0,22.0,-100.00,NNE,22,13.0,-999.0,84,-99.99,,,-99.99,0.000000,,2013-03-06 05:52:00,
2013-03-06 01:00:00,25.0,22.0,-100.00,NNE,22,11.0,-999.0,85,-99.99,,,-99.99,0.000000,,2013-03-06 06:00:00,
2013-03-06 01:32:00,25.0,22.0,-100.00,NNE,22,11.0,-999.0,85,-99.99,,,-99.99,0.000000,,2013-03-06 06:32:00,
2013-03-06 01:42:00,25.0,22.0,-100.00,NNE,22,11.0,-999.0,85,-99.99,,,-99.99,0.000000,,2013-03-06 06:42:00,
2013-03-06 01:52:00,25.0,22.0,-100.00,NNE,22,11.0,-999.0,85,-99.99,,,-99.99,0.000000,,2013-03-06 06:52:00,
2013-03-06 02:00:00,25.0,21.0,-100.00,NNE,22,10.0,-999.0,84,-99.99,,,-99.99,0.000000,,2013-03-06 07:00:00,
2013-03-06 02:42:00,25.0,21.0,-100.00,NNE,22,10.0,-999.0,84,-99.99,,,-99.99,0.000000,,2013-03-06 07:42:00,
2013-03-06 02:52:00,25.0,21.0,-100.00,NNE,22,10.0,-999.0,84,-99.99,,,-99.99,0.000000,,2013-03-06 07:52:00,
2013-03-06 03:00:00,26.0,21.0,-100.00,North,0,9.0,-999.0,83,-99.99,,,-99.99,0.000000,,2013-03-06 08:00:00,
2013-03-06 03:42:00,26.0,21.0,-100.00,North,0,9.0,-999.0,83,-99.99,,,-99.99,0.000000,,2013-03-06 08:42:00,
2013-03-06 03:52:00,26.0,21.0,-100.00,North,0,9.0,-999.0,83,-99.99,,,-99.99,0.000000,,2013-03-06 08:52:00,
2013-03-06 04:00:00,26.0,22.0,-100.00,North,0,7.0,-999.0,82,-99.99,,,-99.99,0.000000,,2013-03-06 09:00:00,
2013-03-06 04:42:00,26.0,22.0,-100.00,North,0,7.0,-999.0,82,-99.99,,,-99.99,0.000000,,2013-03-06 09:42:00,
2013-03-06 04:52:00,26.0,22.0,-100.00,North,0,7.0,-999.0,82,-99.99,,,-99.99,0.000000,,2013-03-06 09:52:00,
2013-03-06 05:00:00,26.0,22.0,-100.00,North,0,7.0,-999.0,83,-99.99,,,-99.99,0.000000,,2013-03-06 10:00:00,
2013-03-06 05:42:00,26.0,22.0,-100.00,North,0,7.0,-999.0,83,-99.99,,,-99.99,0.000000,,2013-03-06 10:42:00,
2013-03-06 05:52:00,26.0,22.0,-100.00,North,0,7.0,-999.0,83,-99.99,,,-99.99,0.000000,,2013-03-06 10:52:00,
2013-03-06 06:00:00,27.0,23.0,-100.00,North,0,7.0,-999.0,84,-99.99,,,-99.99,0.000000,,2013-03-06 11:00:00,
2013-03-06 06:42:00,27.0,23.0,-100.00,North,0,7.0,-999.0,84,-99.99,,,-99.99,0.000000,,2013-03-06 11:42:00,
2013-03-06 06:52:00,27.0,23.0,-100.00,North,0,7.0,-999.0,84,-99.99,,,-99.99,0.000000,,2013-03-06 11:52:00,
2013-03-06 07:00:00,27.0,23.0,-100.00,NNW,337,9.0,-999.0,84,-99.99,,,-99.99,0.000000,,2013-03-06 12:00:00,
2013-03-06 07:43:00,27.0,23.0,-100.00,NNW,337,9.0,-999.0,84,-99.99,,,-99.99,0.000000,,2013-03-06 12:43:00,
2013-03-06 07:52:00,27.0,23.0,-100.00,NNW,337,9.0,-999.0,84,-99.99,,,-99.99,0.000000,,2013-03-06 12:52:00,
2013-03-06 09:00:00,29.0,23.0,-100.00,North,0,8.0,-999.0,78,-99.99,,,-99.99,59.160000,,2013-03-06 14:00:00,
2013-03-06 09:42:00,29.0,23.0,-100.00,North,0,8.0,-999.0,78,-99.99,,,-99.99,59.160000,,2013-03-06 14:42:00,
2013-03-06 09:52:00,29.0,23.0,-100.00,North,0,8.0,-999.0,78,-99.99,,,-99.99,59.160000,,2013-03-06 14:52:00,
2013-03-06 10:00:00,32.0,24.0,-100.00,North,0,7.0,-999.0,72,0.01,,,-99.99,163.559998,,2013-03-06 15:00:00,
2013-03-06 10:42:00,32.0,24.0,-100.00,North,0,7.0,-999.0,72,0.01,,,-99.99,163.559998,,2013-03-06 15:42:00,
2013-03-06 10:52:00,32.0,24.0,-100.00,North,0,7.0,-999.0,72,0.01,,,-99.99,163.559998,,2013-03-06 15:52:00,
2013-03-06 11:00:00,33.0,23.0,-100.00,NNE,22,8.0,-999.0,66,-99.99,,,-99.99,248.240005,,2013-03-06 16:00:00,
2013-03-06 11:42:00,33.0,23.0,-100.00,NNE,22,8.0,-999.0,66,-99.99,,,-99.99,248.240005,,2013-03-06 16:42:00,
2013-03-06 11:52:00,33.0,23.0,-100.00,NNE,22,8.0,-999.0,66,-99.99,,,-99.99,248.240005,,2013-03-06 16:52:00,
2013-03-06 12:00:00,36.0,24.0,-100.00,North,0,7.0,-999.0,59,0.12,,,-99.99,358.440002,,2013-03-06 17:00:00,
2013-03-06 12:42:00,36.0,24.0,-100.00,North,0,7.0,-999.0,59,0.12,,,-99.99,358.440002,,2013-03-06 17:42:00,
2013-03-06 12:53:00,36.0,24.0,-100.00,North,0,7.0,-999.0,59,0.12,,,-99.99,358.440002,,2013-03-06 17:53:00,
2013-03-06 13:00:00,38.0,24.0,-100.00,NNW,337,6.0,-999.0,56,-99.99,,,-99.99,381.640015,,2013-03-06 18:00:00,
2013-03-06 13:42:00,38.0,24.0,-100.00,NNW,337,6.0,-999.0,56,-99.99,,,-99.99,381.640015,,2013-03-06 18:42:00,
2013-03-06 13:53:00,38.0,24.0,-100.00,NNW,337,6.0,-999.0,56,-99.99,,,-99.99,381.640015,,2013-03-06 18:53:00,
2013-03-06 14:00:00,37.0,25.0,-100.00,NW,315,9.0,-999.0,61,-99.99,,,-99.99,352.640015,,2013-03-06 19:00:00,
2013-03-06 14:43:00,37.0,25.0,-100.00,NW,315,9.0,-999.0,61,-99.99,,,-99.99,352.640015,,2013-03-06 19:43:00,
2013-03-06 14:53:00,37.0,25.0,-100.00,NW,315,9.0,-999.0,61,-99.99,,,-99.99,352.640015,,2013-03-06 19:53:00,
2013-03-06 15:00:00,37.0,25.0,-100.00,NNW,337,9.0,-999.0,61,-99.99,,,-99.99,301.600006,,2013-03-06 20:00:00,
2013-03-06 15:43:00,37.0,25.0,-100.00,NNW,337,9.0,-999.0,61,-99.99,,,-99.99,301.600006,,2013-03-06 20:43:00,
2013-03-06 15:53:00,37.0,25.0,-100.00,NNW,337,9.0,-999.0,61,-99.99,,,-99.99,301.600006,,2013-03-06 20:53:00,
2013-03-06 16:00:00,36.0,25.0,-100.00,NNW,337,9.0,-999.0,65,-99.99,,,-99.99,218.080002,,2013-03-06 21:00:00,
2013-03-06 16:42:00,36.0,25.0,-100.00,NNW,337,9.0,-999.0,65,-99.99,,,-99.99,218.080002,,2013-03-06 21:42:00,
2013-03-06 16:52:00,36.0,25.0,-100.00,NNW,337,9.0,-999.0,65,-99.99,,,-99.99,218.080002,,2013-03-06 21:52:00,
2013-03-06 17:00:00,35.0,25.0,-100.00,NNW,337,8.0,-999.0,67,-99.99,,,-99.99,134.559998,,2013-03-06 22:00:00,
2013-03-06 17:42:00,35.0,25.0,-100.00,NNW,337,8.0,-999.0,67,-99.99,,,-99.99,134.559998,,2013-03-06 22:42:00,
2013-03-06 17:52:00,35.0,25.0,-100.00,NNW,337,8.0,-999.0,67,-99.99,,,-99.99,134.559998,,2013-03-06 22:52:00,
2013-03-06 18:00:00,34.0,25.0,-100.00,NNW,337,7.0,-999.0,71,-99.99,,,-99.99,48.720001,,2013-03-06 23:00:00,
2013-03-06 18:42:00,34.0,25.0,-100.00,NNW,337,7.0,-999.0,71,-99.99,,,-99.99,48.720001,,2013-03-06 23:42:00,
2013-03-06 18:52:00,34.0,25.0,-100.00,NNW,337,7.0,-999.0,71,-99.99,,,-99.99,48.720001,,2013-03-06 23:52:00,
2013-03-06 19:00:00,33.0,26.0,-100.00,NW,315,5.0,-999.0,75,-99.99,,,-99.99,5.800000,,2013-03-07 00:00:00,
2013-03-06 19:32:00,33.0,26.0,-100.00,NW,315,5.0,-999.0,75,-99.99,,,-99.99,5.800000,,2013-03-07 00:32:00,
2013-03-06 19:42:00,33.0,26.0,-100.00,NW,315,5.0,-999.0,75,-99.99,,,-99.99,5.800000,,2013-03-07 00:42:00,
2013-03-06 19:52:00,33.0,26.0,-100.00,NW,315,5.0,-999.0,75,-99.99,,,-99.99,5.800000,,2013-03-07 00:52:00,
2013-03-06 20:00:00,32.0,26.0,-100.00,WNW,292,2.0,-999.0,77,-99.99,,,-99.99,0.000000,,2013-03-07 01:00:00,
2013-03-06 20:42:00,32.0,26.0,-100.00,WNW,292,2.0,-999.0,77,-99.99,,,-99.99,0.000000,,2013-03-07 01:42:00,
2013-03-06 20:52:00,32.0,26.0,-100.00,WNW,292,2.0,-999.0,77,-99.99,,,-99.99,0.000000,,2013-03-07 01:52:00,
2013-03-06 21:00:00,32.0,26.0,-100.00,West,270,2.0,-999.0,80,-99.99,,,-99.99,0.000000,,2013-03-07 02:00:00,
2013-03-06 22:00:00,32.0,27.0,-100.00,WNW,292,3.0,-999.0,81,-99.99,,,-99.99,0.000000,,2013-03-07 03:00:00,
2013-03-06 22:42:00,32.0,27.0,-100.00,WNW,292,3.0,-999.0,81,-99.99,,,-99.99,0.000000,,2013-03-07 03:42:00,
2013-03-06 22:52:00,32.0,27.0,-100.00,WNW,292,3.0,-999.0,81,-99.99,,,-99.99,0.000000,,2013-03-07 03:52:00,
2013-03-06 23:00:00,32.0,28.0,-100.00,NW,315,5.0,-999.0,85,-99.99,,,-99.99,0.000000,,2013-03-07 04:00:00,
2013-03-06 23:42:00,32.0,28.0,-100.00,NW,315,5.0,-999.0,85,-99.99,,,-99.99,0.000000,,2013-03-07 04:42:00,
2013-03-06 23:52:00,32.0,28.0,-100.00,NW,315,5.0,-999.0,85,-99.99,,,-99.99,0.000000,,2013-03-07 04:52:00,